ATLAS 5 CENTAUR DEB, 44656

Orbit data source: Space-Track

ATLAS 5 CENTAUR DEB, 44656 is space debris in HEO originally from a launch on Wed, 17 Oct 2018 UTC launched from the Air Force Eastern Test Range (AFETR). Debris objects in space refer to the collection of defunct objects orbiting the Earth. Examples of debris include non-operational satellites, rocket bodies, and fragments generated from explosions, collisions, or faulty payload assembly.

Loading next visibility...
Identifier
44656, 2018-079S
Orbit
HEO
Last TLE update
2 days ago
Origin
Flag of USUnited Launch Alliance/Lockheed Martin (US)
Manufacturer
ULA Decatur
Mission
Spacecraft
Bus & Motor
Unknown
Mass
Unknown
Launch date (UTC)
2018-10-17 (7 years ago)
Launch vehicle
Unknown
Launch site
Air Force Eastern Test Range (AFETR)
Object type
Payload
Rocket body
Debris
Shape & HBR
Unknown
Radar Cross Section
RCS unknown

Expand to show TLE details & history

TLE from 2 days ago
0 ATLAS 5 CENTAUR DEB
1 44656U 18079S   25181.08648563 -.00000133  00000-0  00000+0 0  9994
2 44656  13.4372  56.5847 4613694 266.4574  41.5242  1.83284831 41325
Epoch: 2025-06-30T02:04Z
TLE epoch observation values (Epoch: 2025-06-30T02:04:32.358Z)
Latitude
0.00005°
Longitude
107.05989°
Altitude
16,497.999 km
Speed
4.552 km/s
True Right ascension
03h 46m 23s
True Declination
0° 00' 00"
Sunlit
Object was in daylight at epoch
Visualization orbit readout
Latitude
-6.42677°
Longitude
78.83316°
Altitude
12,154.097 km
Speed
5.374 km/s
Apparent Right ascension
02h 35m 52s
Apparent Declination
-15° 50' 30"
Sunlit
Object is in daylight
Visualization observer readout
Local Sidereal Time
17:30:54
Azimuth
70.433° E
Elevation
-45.08°
Doppler factor
1
Orbital elements
Apogee altitude
34,841.998 km
Perigee altitude
8,814.754 km
Semi-major axis
28,206.513 km
Eccentricity
0.46137
Inclination
13.4372°
RAAN
56.5847°
Arg. of periapsis
266.4574°
True anomaly
Unknown
Mean anomaly
41.5242°
Eccentric anomaly
Unknown
Mean motion
0.45816 °/min
Orbital period
785.75 mins
BSTAR
0
Loading maneuver chart data...
Loading SW <> Apogee altitude chart data...

ATLAS 5 CENTAUR DEB Visibility forecast

Observer location: undefined°, undefined°

Span
Click to sort rows by Start time (UTC) header in descending order
Start Az.
Max El. time (UTC)
Max El. Az.
Max El.
End time (UTC)
End Az.
620 mins2025-07-02 19:29:16.752Z244.478° WSW2025-07-02 22:49:16.752Z239.807° WSW32.93°2025-07-03 05:49:16.752Z216.809° SW
|